Theta_e
331 330 327 327 325 322 316 306 298 294 296 291 288 290 292 296 294 294 294 295 296 298 301 301 302 304 302 300 300 300 301 299 297 293 290 297 310 313 316 320 322 322 323 323 322 322 326 335 337 337 338 338 339 340 341 341 341 341 342 342 344 344 344 345 345 345 345 345 345 345 345 345 345 345 344 344 343 343 342 342 342 344 345 345 346 346 347 346 345 346 346 345 343 342 343 343 344
329 323 324 325 321 318 311 301 293 292 288 286 291 291 292 292 294 291 292 291 292 299 299 301 300 302 303 303 302 302 302 304 303 304 302 307 309 311 315 320 321 321 322 321 321 321 322 330 336 336 337 337 337 338 338 338 339 339 339 340 340 341 342 342 342 342 343 343 343 343 342 343 342 342 342 342 341 340 340 340 340 341 342 343 343 344 345 345 345 344 343 342 340 339 339 340 341
326 322 323 320 318 314 310 301 296 287 288 285 287 290 292 294 292 293 292 292 297 300 298 299 300 300 301 301 300 300 295 304 303 304 304 309 309 312 313 317 322 322 321 320 321 320 321 326 335 335 336 336 336 337 337 337 337 336 337 337 337 339 339 339 339 340 340 340 340 340 340 340 339 339 339 339 339 338 337 338 338 338 339 341 342 342 341 342 342 341 340 338 336 335 335 335 336
319 323 321 314 311 305 299 295 289 288 287 286 288 291 291 292 294 294 296 296 298 297 298 299 299 300 299 297 298 302 301 301 303 304 303 306 309 313 312 316 322 321 320 320 320 319 320 329 335 334 335 334 335 335 335 336 336 335 335 335 335 336 336 335 335 336 336 337 337 337 337 337 336 336 336 336 335 335 334 333 334 335 336 336 337 338 337 337 336 336 336 335 333 331 331 330 331
319 321 322 311 307 304 298 295 293 289 290 288 287 289 292 292 296 296 297 297 297 296 298 298 297 300 302 300 301 299 297 303 304 306 304 307 308 313 311 317 320 320 319 320 321 320 321 332 334 333 334 334 334 334 335 334 334 334 334 334 335 335 335 335 334 333 333 334 334 334 334 334 334 334 333 333 332 332 331 331 330 330 331 332 333 333 333 333 333 332 332 331 330 329 328 327 327
317 316 317 313 307 307 299 296 292 290 294 291 294 294 292 295 297 296 297 297 298 297 297 297 297 298 300 300 302 300 302 301 303 305 305 307 309 312 313 318 319 318 318 319 319 318 320 332 333 332 333 334 334 333 333 333 333 333 333 333 333 333 333 334 334 333 333 333 333 332 332 332 332 331 330 330 329 329 328 328 328 327 328 329 330 331 331 330 329 329 329 328 328 326 326 326 325
315 310 309 303 305 301 294 289 290 290 296 296 294 294 296 295 298 296 296 298 299 298 298 299 297 297 297 298 302 304 306 307 305 305 308 308 310 311 313 315 317 316 316 318 318 319 319 331 331 332 332 332 333 333 333 333 333 333 333 334 333 333 333 332 332 331 331 330 330 330 329 329 330 329 329 328 327 327 327 326 326 326 326 326 326 327 327 327 326 326 327 326 326 325 324 324 325
316 309 305 296 295 294 292 288 290 290 291 298 295 295 294 298 297 296 296 296 296 296 299 298 297 295 295 301 297 302 305 306 306 306 307 308 310 310 311 316 315 315 316 316 317 318 326 330 330 331 332 333 333 333 333 333 332 332 332 332 332 331 331 330 330 330 328 328 328 328 328 329 329 328 327 325 325 325 325 325 325 324 324 324 325 325 325 326 325 325 325 325 324 324 323 323 323
310 312 303 297 294 291 289 290 290 292 292 293 296 296 303 299 298 297 295 295 297 295 297 298 297 294 292 298 296 300 302 305 305 308 308 309 310 310 312 315 315 313 314 315 316 317 320 329 330 331 331 331 331 332 331 331 330 330 330 330 330 330 329 329 328 327 327 327 327 327 327 327 327 326 325 324 323 323 323 324 324 324 324 324 324 323 323 324 324 324 324 324 323 323 322 322 322
307 303 297 294 290 292 286 289 291 293 294 296 297 298 299 298 297 297 296 296 296 295 297 297 296 295 295 296 297 300 301 304 305 305 307 309 310 308 310 314 314 313 313 314 314 316 317 326 329 329 329 330 330 330 330 329 329 329 328 328 328 327 327 327 326 326 325 325 325 325 325 324 324 324 325 324 323 323 323 323 323 323 322 322 322 323 323 323 323 323 323 322 322 322 321 320 320
300 302 299 296 289 289 289 287 288 294 293 294 294 294 299 299 298 295 295 295 296 295 297 298 299 295 297 296 296 300 303 303 304 304 306 308 307 305 309 312 313 313 312 312 312 313 314 317 325 328 328 327 327 328 328 327 328 327 326 326 326 326 326 326 325 324 324 323 322 322 322 322 322 323 323 323 322 322 321 322 322 322 321 321 321 321 321 321 321 321 320 320 321 319 319 319 319
300 299 296 289 287 287 287 288 289 293 295 294 295 297 296 299 296 295 294 296 296 296 297 297 298 296 296 294 296 298 302 301 304 306 305 305 304 304 309 311 312 311 311 311 311 310 311 314 318 324 327 327 327 327 326 326 326 325 325 325 325 324 325 325 325 324 324 322 321 320 320 319 319 320 321 321 320 320 319 320 320 320 320 320 320 320 319 320 320 319 318 318 318 317 318 318 317
299 295 291 290 286 288 287 290 291 293 292 292 295 299 296 296 297 296 294 296 295 295 296 299 299 299 294 295 296 298 299 301 302 303 304 302 301 303 308 310 310 310 310 310 310 309 308 309 313 315 319 324 324 325 325 324 324 324 324 324 323 323 323 323 322 322 321 321 320 319 318 316 315 316 318 319 318 317 317 318 318 318 318 318 319 318 318 318 318 317 316 316 315 315 316 316 316
300 297 295 290 288 289 291 289 287 290 287 292 294 296 297 297 297 295 294 295 295 296 297 301 299 298 297 295 294 296 299 302 300 302 300 299 300 302 305 307 307 308 308 308 309 308 308 308 310 311 313 315 314 320 322 323 323 323 322 322 322 321 321 320 319 318 319 319 318 317 316 314 314 313 313 315 316 315 315 316 317 317 317 317 317 317 317 317 316 315 315 314 313 313 313 314 314
303 300 293 290 288 286 286 290 288 288 289 292 296 297 298 299 298 293 296 295 296 298 301 301 300 299 293 297 294 297 301 302 301 301 299 299 300 301 302 305 306 306 306 307 308 307 307 306 308 306 307 307 309 310 311 318 321 322 321 321 320 320 320 318 317 315 315 315 314 313 312 312 311 311 311 312 313 312 312 312 314 315 315 316 316 315 315 315 314 314 313 312 311 310 310 310 311
302 296 292 292 286 287 287 289 290 291 291 292 296 296 297 297 298 298 297 298 299 300 300 299 301 299 297 298 297 298 302 302 301 298 298 298 298 299 300 301 303 304 304 305 306 305 305 305 305 304 304 304 305 306 308 309 318 319 319 319 319 318 317 317 316 314 312 310 310 309 309 306 306 305 307 306 309 310 310 310 311 312 313 314 314 313 313 313 312 312 311 311 310 308 308 307 308
300 296 293 286 288 287 287 290 291 290 291 293 293 297 296 295 297 298 297 298 298 299 299 297 301 299 296 296 298 301 302 302 301 297 297 296 297 296 297 297 298 299 302 303 304 304 303 304 304 302 302 302 303 304 305 305 311 316 316 316 316 315 315 314 313 312 310 307 306 306 303 296 296 296 298 299 306 303 308 309 309 309 311 311 312 311 312 311 310 309 309 308 307 306 304 303 303
300 294 287 285 287 288 290 292 292 294 295 294 296 294 295 294 295 299 298 297 297 296 298 298 299 295 298 298 300 301 301 299 297 296 296 295 295 295 295 296 296 298 299 300 301 302 302 302 302 301 301 301 301 303 304 305 307 311 304 306 305 309 311 310 304 300 304 300 305 299 296 297 295 295 299 304 299 301 304 308 307 307 308 308 309 309 309 309 308 307 307 306 305 304 301 293 294
298 290 288 287 286 292 294 295 294 295 294 293 293 293 294 295 295 297 297 293 294 295 295 296 298 296 297 297 298 299 299 297 296 296 295 295 295 295 296 296 296 296 297 298 299 300 301 300 301 300 300 300 300 300 302 303 302 300 300 300 303 307 304 301 298 299 296 296 295 295 296 295 294 295 296 300 302 307 304 306 305 305 304 305 306 307 306 306 306 305 304 303 302 300 292 291 291
298 293 288 289 292 292 294 295 298 294 295 294 294 295 293 295 296 297 296 294 293 293 294 294 296 298 296 296 296 298 298 297 296 295 295 295 295 295 295 295 295 296 297 298 299 300 299 299 299 299 299 298 299 299 300 300 298 297 298 298 299 299 298 298 295 295 295 295 295 295 294 296 296 299 305 304 301 295 299 303 302 302 301 300 298 297 301 302 302 302 302 300 297 293 290 290 291
297 295 291 292 292 294 297 296 296 294 294 295 293 294 293 293 295 296 293 293 293 295 297 298 297 299 297 295 296 296 296 296 295 295 295 295 295 296 296 296 296 297 297 297 297 298 298 298 298 298 299 298 298 298 298 297 296 296 296 296 296 295 296 295 295 294 294 294 295 294 294 295 294 293 292 292 291 292 290 290 291 290 291 292 295 289 290 292 291 290 290 292 289 290 289 289 290
297 297 297 297 294 294 297 296 295 294 294 295 293 294 295 295 295 295 293 295 296 296 298 298 299 300 297 295 296 296 296 295 295 294 294 295 294 295 296 296 295 294 295 295 296 297 297 298 298 298 298 297 297 296 296 297 297 295 294 295 294 295 295 294 295 294 294 294 294 294 295 293 292 291 291 291 291 291 290 289 289 289 289 289 292 288 288 289 288 289 290 290 289 289 289 289 289
295 296 296 296 296 296 297 298 295 294 295 294 293 295 295 295 294 292 295 297 300 297 296 298 299 300 300 299 297 295 295 295 295 294 295 294 294 295 295 296 295 294 295 296 296 297 297 297 298 298 298 297 295 295 295 297 295 294 294 295 294 294 293 294 293 293 293 293 294 295 293 292 291 291 291 290 290 290 290 289 288 288 288 288 290 288 288 288 288 288 288 289 288 288 289 289 289
298 296 294 297 296 297 299 299 296 293 293 295 294 294 295 294 293 292 294 299 301 299 294 296 298 297 298 297 296 296 296 296 295 296 296 296 296 296 296 296 296 296 294 295 295 296 297 297 297 298 298 297 296 295 295 296 295 294 294 297 295 296 294 293 293 293 293 293 294 294 293 292 291 290 290 290 289 289 289 289 289 288 287 288 289 288 288 287 288 288 288 288 288 288 288 288 288
296 297 296 298 296 296 296 293 291 291 292 292 293 293 296 294 294 292 296 299 299 298 297 296 295 294 297 298 296 297 296 296 296 296 297 297 297 297 296 296 296 295 294 294 295 295 296 297 297 297 298 298 297 295 295 296 295 293 294 295 294 298 293 293 293 293 292 292 293 293 293 290 290 290 290 289 289 289 289 288 287 287 287 287 288 288 288 287 287 287 288 288 287 287 287 287 288
296 298 297 294 294 294 293 294 294 293 294 293 294 294 295 293 293 294 299 300 300 297 296 297 295 293 295 297 297 297 297 296 297 296 296 297 297 296 296 296 296 295 295 295 295 295 296 297 296 297 298 298 297 295 295 295 295 293 294 295 294 297 292 292 292 292 291 292 292 292 292 291 290 290 290 289 289 288 288 288 288 287 286 287 287 288 288 287 287 287 287 287 287 287 286 287 287
293 294 294 295 296 294 294 293 295 294 292 291 294 295 295 293 294 295 300 298 296 296 297 296 295 296 296 297 297 297 297 297 297 298 297 296 296 296 297 296 296 296 295 295 295 295 296 296 296 297 297 298 297 295 295 295 295 294 294 295 294 295 293 292 292 291 290 290 291 291 291 291 290 289 289 288 288 288 288 287 287 286 285 286 286 287 288 287 287 287 287 286 287 287 286 286 287
295 294 292 294 293 293 294 293 294 294 296 293 295 294 294 290 292 295 300 295 293 294 294 295 294 296 297 296 297 297 297 299 299 297 297 296 296 297 297 297 297 296 295 295 295 295 295 296 296 297 297 297 297 296 296 295 294 294 294 294 294 294 293 292 291 290 291 290 291 291 290 290 291 289 289 288 288 288 287 287 286 286 285 286 287 286 287 287 287 287 287 287 287 286 286 285 287
295 294 292 293 292 294 297 294 296 293 295 291 293 292 292 291 291 298 299 300 297 294 293 293 294 295 296 296 296 296 297 298 298 297 298 299 299 299 298 299 298 297 297 296 296 295 295 296 296 296 296 297 296 295 295 295 295 294 294 293 294 294 292 291 290 290 290 290 290 290 290 290 291 289 288 289 290 287 287 287 286 286 286 286 287 287 286 285 286 286 286 287 287 285 285 285 286
295 293 291 292 291 290 297 293 294 293 293 292 293 286 288 293 295 298 300 298 296 293 295 295 295 295 295 295 295 296 297 297 297 298 299 299 299 299 299 299 299 298 297 296 295 295 296 296 297 296 296 296 296 295 295 294 294 294 294 293 294 293 292 291 291 290 290 290 290 289 290 290 289 289 289 288 288 287 287 286 286 285 285 286 286 286 285 285 285 285 285 285 288 285 284 284 284
291 290 290 287 285 286 294 293 290 291 291 293 294 287 290 294 297 297 297 295 294 295 296 296 296 295 295 295 295 296 297 298 298 299 299 300 300 300 299 299 299 298 297 294 294 295 295 296 297 296 296 295 296 295 295 294 294 294 293 292 292 292 291 291 290 290 290 290 289 289 290 290 289 289 288 288 287 287 286 285 285 285 285 286 285 285 285 285 285 285 285 284 283 283 283 285 284
288 288 285 282 286 288 293 292 291 292 291 291 293 286 290 295 298 299 294 293 292 293 294 295 295 295 294 295 295 296 297 297 298 299 299 300 300 299 299 298 298 298 297 296 295 295 294 295 296 295 296 295 295 295 294 294 294 293 293 294 292 292 291 290 290 290 290 289 289 288 289 289 289 288 287 287 287 286 286 285 285 285 285 285 285 285 285 285 284 285 285 283 282 282 284 282 283
284 288 284 286 282 285 288 292 289 294 291 291 293 288 287 291 296 298 294 294 292 293 294 294 294 294 294 294 295 296 297 296 297 298 299 299 300 300 299 299 298 298 298 296 295 294 294 294 296 295 295 295 295 295 294 293 293 293 292 292 292 291 291 290 289 289 289 289 288 288 289 289 288 288 287 287 286 285 285 285 284 285 285 284 284 284 284 285 284 285 284 285 283 281 282 282 282
285 284 284 285 285 285 285 289 290 289 292 289 291 289 291 295 295 291 289 290 289 290 292 293 294 294 295 295 295 295 296 297 297 298 298 299 300 300 300 300 299 299 298 297 295 295 294 294 295 295 295 295 295 295 294 293 293 292 291 291 292 290 290 289 289 289 289 289 288 288 288 289 288 287 287 286 285 285 285 285 284 285 285 284 283 283 283 283 283 283 282 283 283 282 281 281 282
284 282 283 284 285 286 288 286 288 289 289 290 289 289 290 294 296 296 297 292 291 291 293 293 293 294 294 294 295 295 296 296 298 300 300 299 299 299 300 299 298 298 298 296 295 295 294 294 295 295 294 294 294 294 293 292 291 291 289 290 290 289 289 288 288 288 288 288 288 288 288 288 288 287 287 286 285 286 284 284 284 284 284 283 283 283 283 284 283 282 282 281 283 282 281 282 282
287 286 286 282 283 285 285 290 291 292 290 287 288 289 290 291 293 295 296 296 294 295 294 292 293 294 294 294 294 295 296 296 299 301 300 298 298 299 299 299 298 298 297 296 295 294 294 293 294 294 294 294 294 293 292 291 290 290 289 288 288 289 288 288 288 288 288 288 288 288 288 287 287 287 286 286 286 285 284 284 284 284 284 283 283 282 282 282 281 281 281 281 281 283 284 283 282
288 286 284 285 286 287 288 291 291 289 288 288 290 291 291 292 293 295 296 295 294 294 294 294 294 295 296 296 295 295 296 297 300 299 298 297 297 298 299 298 297 297 296 294 294 293 293 293 293 292 293 293 293 292 291 291 290 289 288 289 290 289 288 288 288 287 287 288 288 288 288 287 287 287 286 286 285 286 284 284 284 283 283 283 283 283 282 282 281 281 283 284 281 280 280 280 281
288 287 285 287 285 286 290 291 292 288 289 287 289 290 291 292 293 295 295 293 293 294 295 295 295 295 295 296 296 297 298 299 298 297 296 294 296 296 297 297 296 295 295 294 293 293 293 293 293 293 293 293 293 292 292 292 291 291 290 290 290 289 289 288 288 287 288 288 288 288 288 287 287 286 286 285 285 285 284 284 284 283 283 283 283 283 282 285 283 281 281 280 281 280 280 281 282
287 286 286 285 286 288 291 291 293 291 286 288 289 288 290 291 292 294 294 295 296 296 296 297 297 296 295 295 296 297 298 298 298 298 296 295 295 295 296 296 296 297 296 294 294 293 292 292 293 293 293 292 293 293 292 292 292 291 291 290 290 288 288 289 288 288 288 287 288 288 287 287 287 286 286 286 285 284 284 284 284 283 283 284 283 282 282 282 281 281 281 280 279 280 280 282 280
285 285 282 284 287 286 286 286 288 288 290 283 282 285 289 289 290 291 294 295 296 296 296 296 296 296 296 297 297 297 296 297 297 298 298 294 294 295 295 295 296 296 295 293 293 293 293 293 292 292 292 292 292 292 293 292 292 290 288 289 288 288 287 288 287 286 286 286 287 287 287 287 287 286 285 285 285 284 284 284 283 283 283 284 282 282 281 281 280 280 280 281 280 278 278 279 282
287 287 286 287 287 288 287 287 286 286 286 287 287 287 288 289 289 291 293 295 294 295 295 294 296 296 297 298 297 297 297 298 298 298 297 293 293 294 295 295 295 295 295 294 293 293 293 292 292 292 292 292 292 292 292 291 290 288 287 287 287 286 286 285 285 284 286 286 287 286 287 286 286 286 285 285 285 284 283 283 283 283 283 282 282 281 281 281 281 280 281 281 279 278 278 277 279
288 287 289 290 290 288 288 289 286 283 283 284 286 282 284 285 289 290 293 292 292 295 293 294 296 296 296 296 297 298 298 299 299 299 299 295 294 294 294 294 294 295 295 295 294 294 293 292 292 292 292 292 292 292 292 291 290 289 287 286 285 286 285 285 285 286 285 286 286 287 286 286 286 286 285 285 285 284 283 283 283 282 282 282 282 281 281 280 280 280 280 281 279 279 278 278 277
287 284 289 291 289 288 287 286 284 280 279 285 286 280 282 283 284 288 289 290 292 293 292 294 295 296 296 297 298 298 298 298 297 298 298 294 293 293 294 294 294 295 296 295 294 293 293 292 292 292 292 291 292 291 291 291 290 289 288 288 288 287 287 287 287 287 287 287 286 286 286 286 286 286 285 285 284 284 283 283 282 282 282 282 282 281 280 280 280 280 281 279 279 282 279 277 278
285 284 286 287 287 285 285 284 284 284 282 284 285 282 280 284 286 288 290 291 290 291 293 294 294 295 295 295 296 296 298 297 296 295 296 296 294 294 294 294 294 295 295 294 293 293 292 292 292 291 292 291 291 291 291 291 290 289 288 288 288 288 288 287 287 287 287 287 286 286 286 285 285 286 285 284 284 284 283 282 282 282 282 281 282 281 281 280 280 281 281 280 280 281 279 279 277
285 286 286 285 286 285 284 285 283 281 280 280 282 282 281 283 285 290 290 286 288 290 293 296 296 295 295 295 296 296 297 297 295 295 295 295 294 294 295 294 295 294 293 293 293 293 293 292 292 291 291 291 291 290 291 290 291 290 289 288 288 288 288 287 287 287 286 286 286 285 285 285 285 285 285 284 284 284 284 283 282 281 281 281 282 281 280 280 280 280 280 279 280 279 279 279 277
287 286 286 284 283 282 284 282 285 280 279 279 281 283 280 283 286 283 286 286 287 290 293 295 296 296 296 296 297 298 297 296 294 295 296 295 295 295 295 294 293 293 293 293 292 292 292 292 291 291 291 291 291 290 291 290 290 290 289 288 288 287 287 285 286 286 286 285 285 285 285 284 284 284 284 284 283 283 283 282 282 281 281 281 282 280 280 280 280 280 280 279 279 279 279 279 278
286 286 286 282 281 280 278 278 278 280 279 281 282 284 284 280 283 284 284 285 289 291 290 292 293 294 295 295 296 297 298 298 297 295 294 294 293 293 292 293 293 292 291 291 292 292 292 291 291 290 291 291 290 290 290 290 290 289 289 289 288 287 286 285 285 285 285 284 285 284 284 284 284 284 283 283 283 283 283 282 282 281 281 282 282 280 280 280 280 279 279 279 279 278 278 279 281
287 287 280 283 283 277 276 272 277 275 278 280 283 284 285 279 280 280 284 284 286 290 289 291 292 293 294 295 295 296 297 297 295 293 293 292 291 290 291 292 291 291 290 290 291 291 291 291 291 290 290 290 290 290 290 290 290 289 289 289 288 288 287 286 285 285 285 285 285 284 284 284 283 284 283 283 283 283 282 282 282 281 281 281 281 280 280 280 279 279 279 279 278 278 278 279 278
285 282 283 280 274 273 271 271 272 272 278 278 281 283 279 282 287 283 286 287 286 288 292 292 292 292 293 294 295 296 296 294 294 294 293 292 292 292 291 292 290 289 291 291 291 291 291 291 290 290 290 290 290 290 289 289 289 289 289 289 289 288 288 287 286 286 286 285 285 285 284 283 283 282 282 282 283 282 282 281 281 281 280 281 280 280 280 279 279 279 278 278 278 278 278 278 277
284 285 281 277 273 271 268 268 267 271 277 278 280 282 282 284 281 290 292 294 295 293 291 292 293 293 294 294 295 295 294 293 294 294 293 293 293 293 293 292 292 291 291 291 290 290 291 291 290 290 291 290 290 290 289 289 289 290 290 289 289 289 288 287 287 287 286 286 286 285 285 284 284 283 283 283 283 283 282 282 282 281 280 280 280 280 279 279 279 278 278 278 277 277 277 277 277
287 285 287 284 279 270 268 271 277 278 281 276 277 278 276 275 281 286 293 293 290 289 292 293 292 292 293 292 292 292 292 293 292 291 293 294 294 293 293 293 292 291 291 290 290 290 290 290 290 290 290 290 290 290 290 289 290 290 290 290 289 289 288 288 287 288 287 286 286 285 285 285 284 284 284 284 283 283 282 282 281 280 280 280 280 279 280 279 279 278 278 277 277 277 277 277 276
284 282 281 279 281 279 282 283 279 278 274 275 274 279 277 284 287 288 285 288 291 290 289 289 291 292 292 293 294 295 296 295 292 291 292 293 293 292 292 292 292 291 290 290 290 290 290 290 290 290 291 290 290 290 290 290 290 290 289 289 289 289 288 288 288 287 287 287 286 286 285 285 285 284 284 283 283 282 282 281 280 280 279 279 279 279 279 278 278 278 277 277 277 278 276 276 276
282 285 282 286 285 285 282 282 281 276 273 279 276 279 284 286 291 290 291 289 289 289 290 290 290 292 292 292 294 295 295 293 290 291 293 293 291 292 293 292 291 291 290 290 291 291 291 291 290 290 290 290 290 290 290 290 290 289 289 289 289 288 288 287 287 287 287 286 286 286 285 285 284 284 283 283 282 282 281 280 280 279 279 279 279 279 278 278 278 278 277 277 276 277 276 276 275
284 280 284 286 285 283 282 274 273 275 276 280 280 280 282 281 281 283 283 285 286 286 287 289 290 290 289 292 293 294 293 292 291 292 293 293 293 292 292 292 292 292 292 291 291 291 291 291 291 290 290 290 290 290 290 290 289 289 289 288 289 289 288 288 288 287 286 285 285 285 284 284 284 284 283 283 282 281 281 281 280 279 279 278 278 278 278 278 277 277 277 276 276 276 276 276 275
282 281 285 285 278 278 279 275 275 276 277 279 282 284 284 284 285 287 287 288 290 289 287 286 288 289 290 291 292 292 291 291 292 293 293 293 293 293 293 292 292 292 292 292 292 291 291 291 291 290 290 290 290 291 290 290 290 290 290 289 289 288 288 288 287 287 285 285 284 284 284 284 283 282 282 282 281 281 280 280 279 279 278 278 278 278 277 277 277 276 276 276 275 275 275 275 275
286 287 285 283 282 277 277 282 280 282 278 280 280 284 282 288 283 286 284 286 285 285 284 285 287 288 289 291 292 293 293 294 294 294 294 294 294 293 293 292 291 291 291 291 291 290 290 291 290 290 290 290 289 289 289 289 290 290 290 289 289 289 288 288 287 286 285 284 284 284 283 282 282 282 282 281 281 280 280 279 279 278 278 278 277 277 277 276 276 276 276 275 275 275 274 274 274
284 285 282 284 282 282 282 282 281 282 280 279 279 279 284 289 285 286 284 282 284 287 289 289 291 292 292 291 291 293 294 295 293 293 294 294 294 293 291 290 289 288 288 288 289 290 291 290 290 290 290 289 289 290 289 290 290 289 289 288 288 288 287 287 286 285 285 284 284 284 283 283 281 281 281 281 280 280 280 279 279 278 278 277 277 276 276 276 276 275 275 275 274 274 274 274 274
287 287 285 287 284 281 280 279 285 280 281 279 280 278 286 292 289 287 285 286 290 291 290 290 289 290 291 293 292 291 291 291 292 293 294 295 294 294 290 288 286 286 287 288 289 289 288 289 290 290 290 289 289 289 289 289 289 289 288 288 288 287 287 286 285 285 284 284 283 283 283 281 281 281 281 280 280 280 279 279 278 278 277 277 277 276 276 276 275 275 274 274 274 274 273 273 273
Wind_Speed
4 4 3 1 1 1 1 4 1 3 2 4 3 0 2 1 2 1 2 1 1 2 2 2 1 1 1 3 5 4 2 8 6 9 5 1 1 3 4 9 7 6 7 5 3 3 3 8 12 12 12 12 12 12 11 11 10 9 9 9 9 10 10 10 10 10 10 10 9 9 9 9 10 11 11 11 11 11 11 11 10 10 11 12 12 12 12 10 10 12 14 14 13 13 12 12 12
2 4 3 1 0 1 0 1 3 3 4 3 6 1 4 2 1 4 6 5 3 2 2 1 5 8 9 10 6 4 1 1 2 0 1 4 1 2 5 9 7 8 6 4 4 4 3 5 12 12 12 13 12 12 13 11 10 10 9 8 8 9 10 10 10 10 10 9 8 8 8 8 9 10 10 12 12 11 11 11 11 10 11 10 10 12 13 15 14 13 11 13 14 13 13 13 12
2 4 4 5 3 3 1 3 2 1 1 4 7 6 2 1 4 4 7 4 3 3 3 2 2 3 3 3 1 2 4 1 1 1 1 0 6 7 6 7 7 8 7 4 4 4 3 4 10 12 13 13 13 13 13 12 12 11 11 10 10 10 10 9 10 9 9 9 9 9 9 8 9 10 10 11 12 12 12 12 11 10 11 12 11 11 13 13 14 13 13 13 13 12 12 12 11
1 1 1 2 1 4 2 3 4 5 2 5 4 5 3 4 5 6 4 5 3 2 1 1 2 1 4 1 2 3 0 1 4 6 4 7 7 7 7 8 8 6 5 4 4 4 3 5 10 12 13 13 14 14 13 13 13 12 11 11 11 11 11 10 10 10 9 10 9 9 9 9 8 8 10 11 12 12 12 13 12 11 11 11 12 12 12 12 12 12 12 12 12 12 11 11 10
3 2 1 3 3 1 2 1 2 3 3 4 3 4 5 5 5 5 3 3 3 2 1 2 3 0 1 1 2 2 4 2 2 5 2 3 2 8 6 8 8 7 6 5 5 4 4 6 9 12 13 13 14 14 14 13 13 12 12 12 12 12 12 12 11 11 11 11 11 11 10 10 10 10 10 11 11 12 12 12 12 11 11 11 11 11 11 12 12 12 13 12 12 11 11 10 10
1 4 2 2 0 2 4 0 1 4 8 4 1 4 5 6 7 7 2 2 2 1 3 2 2 3 1 0 2 1 3 3 2 2 4 7 7 8 7 8 9 7 6 5 5 4 4 8 10 12 13 13 14 14 14 14 14 13 13 13 13 13 13 13 13 13 12 12 13 13 12 12 12 12 11 11 11 11 11 12 12 11 11 11 11 11 11 12 12 12 12 12 12 11 11 11 11
2 4 3 4 1 3 4 2 5 5 9 7 4 5 7 4 5 5 2 1 1 1 1 3 2 3 0 1 0 2 1 2 3 3 7 6 8 8 8 8 8 8 6 6 5 5 5 10 13 13 14 14 15 15 15 15 15 15 14 14 14 14 14 13 13 13 12 13 13 13 12 12 12 12 12 12 12 12 12 12 12 12 12 12 11 12 11 12 12 12 12 12 12 12 12 11 11
1 1 1 1 1 2 0 2 5 6 5 8 4 4 5 7 5 4 6 3 3 4 1 2 2 3 2 3 2 0 3 1 3 1 5 10 9 8 8 10 10 7 7 5 5 4 7 11 13 14 15 15 15 15 15 15 15 14 14 14 14 14 14 13 13 13 13 13 13 13 13 13 13 13 12 12 12 12 12 12 12 12 12 12 12 12 12 12 13 13 13 13 13 12 12 12 13
3 1 0 4 0 2 1 4 5 3 6 3 9 6 4 6 8 6 5 3 1 1 2 3 4 3 2 2 2 1 4 1 1 4 8 10 12 9 8 10 11 8 7 6 5 4 5 10 13 15 14 14 15 15 15 14 14 14 14 14 14 14 14 13 13 13 13 13 13 13 13 13 13 13 13 13 12 12 12 12 12 12 13 13 13 13 13 13 13 13 13 13 13 13 13 13 13
1 2 1 1 2 3 3 7 0 5 4 5 6 7 5 5 6 3 7 1 5 2 4 1 1 1 2 4 1 1 2 3 4 5 7 9 9 7 6 7 9 10 7 6 4 4 4 8 11 13 13 13 14 14 14 14 14 14 14 14 14 14 13 14 13 14 14 14 14 13 13 13 13 13 13 13 13 12 13 13 13 13 13 13 13 13 13 13 14 14 14 14 13 13 13 13 13
1 4 2 2 1 1 4 7 5 7 4 5 7 5 4 6 6 3 4 3 1 4 1 2 1 3 2 2 3 1 3 4 9 12 9 9 7 7 7 5 7 8 8 6 5 4 4 4 9 11 11 13 13 13 14 14 14 14 14 14 14 14 14 14 14 14 14 14 14 14 13 13 13 13 13 13 13 13 13 13 13 13 13 13 13 13 13 13 13 14 14 14 14 13 14 14 14
1 0 1 2 2 5 5 3 5 9 8 4 3 0 4 8 2 1 3 2 3 2 5 7 3 6 1 1 2 3 0 5 9 9 10 8 8 6 7 6 7 6 7 7 4 4 3 4 4 8 10 11 11 13 13 13 13 13 13 14 14 14 15 15 15 15 15 15 14 14 14 14 13 13 13 13 13 13 13 13 13 13 13 13 13 13 13 13 14 14 14 14 14 14 14 14 14
2 1 4 3 3 2 2 1 7 3 5 5 4 0 5 6 6 7 5 2 3 4 4 10 1 5 2 3 2 2 4 9 5 6 8 7 6 5 6 7 7 8 8 7 6 5 4 4 4 4 6 10 10 11 11 13 13 13 13 14 14 14 15 15 15 15 15 15 15 14 14 14 14 13 13 13 13 13 13 13 13 13 13 13 13 13 14 14 14 14 14 14 14 14 14 14 14
2 3 3 2 0 1 1 4 2 4 5 4 2 1 5 3 4 5 5 3 5 6 4 8 2 4 3 2 2 4 9 7 5 6 5 5 5 5 7 6 6 7 6 7 7 6 5 4 4 4 4 5 5 8 10 12 12 13 13 13 14 15 15 16 16 16 16 15 15 14 14 13 14 13 13 13 13 13 13 13 13 13 13 13 13 13 14 14 14 14 14 14 14 14 14 14 14
0 1 3 1 2 1 3 2 3 2 6 2 2 1 1 3 0 3 7 5 10 3 1 3 4 4 6 7 7 8 11 12 8 6 5 5 5 6 6 6 7 6 6 6 5 5 5 4 4 3 4 4 5 5 4 7 12 12 13 13 14 15 15 16 16 16 15 15 14 14 13 13 12 13 13 13 12 12 12 12 13 13 13 13 13 14 14 14 14 14 14 14 14 14 14 14 14
2 4 2 1 3 1 5 3 0 1 6 2 3 1 0 3 0 1 4 3 1 1 2 5 1 4 2 7 2 5 10 12 8 7 7 6 4 4 5 5 5 5 5 6 6 6 5 5 4 4 3 4 4 5 5 5 8 10 12 13 14 15 15 16 16 15 14 13 13 12 11 8 9 7 11 8 11 11 11 8 12 14 14 14 14 14 14 14 14 15 15 15 15 15 15 14 14
2 3 1 1 6 3 4 3 1 3 4 3 4 1 4 2 1 1 0 0 2 2 2 2 5 1 3 3 3 2 11 12 10 9 8 6 6 5 4 4 5 4 4 6 7 7 6 6 6 5 4 4 4 5 5 5 6 10 10 11 13 14 14 15 15 14 12 12 10 10 9 6 5 5 5 5 7 5 8 10 12 13 13 13 13 13 13 13 13 14 14 14 15 15 14 13 13
2 1 3 3 5 1 5 4 4 1 1 3 1 4 3 3 1 1 1 1 0 1 3 3 1 2 1 3 1 6 14 16 13 14 10 9 6 6 7 6 6 9 8 7 6 7 7 7 7 6 5 5 5 5 4 5 4 6 5 5 5 8 10 10 9 7 9 7 9 8 6 5 6 4 4 6 5 5 6 10 10 12 12 12 11 12 12 12 12 13 13 14 14 13 13 7 7
3 1 2 8 4 7 4 3 3 0 5 3 3 2 5 7 2 1 1 3 1 4 4 1 5 3 4 4 5 12 13 13 14 14 15 15 13 15 13 9 9 6 8 8 8 10 9 8 7 8 8 7 6 5 5 5 5 5 5 4 4 6 6 6 6 6 6 7 6 6 6 6 5 4 4 4 4 7 6 9 10 11 11 11 11 12 12 12 12 13 14 13 13 12 7 6 6
4 4 5 8 7 5 5 4 7 4 3 4 3 2 5 3 2 0 3 7 0 8 6 2 6 10 5 3 4 9 12 14 14 15 16 16 15 16 12 12 11 12 12 12 11 8 9 10 11 10 9 9 8 7 6 6 5 5 5 5 4 5 5 5 5 6 6 6 7 6 6 5 5 6 7 9 7 5 6 8 10 9 10 10 10 7 9 11 11 12 13 12 8 5 5 6 6
2 2 5 5 3 3 7 4 6 6 3 1 3 0 0 4 5 3 3 2 8 10 9 11 13 15 9 7 7 8 11 13 13 13 14 14 13 11 13 15 17 16 11 7 5 10 11 11 10 10 9 9 9 7 7 7 6 6 6 6 6 6 5 5 5 6 6 7 6 6 6 5 6 6 6 6 6 6 5 4 4 4 3 4 5 4 4 4 4 5 4 6 5 5 5 5 5
4 9 6 7 0 1 10 6 7 3 2 2 2 2 6 0 0 4 5 10 14 8 10 10 11 10 9 11 11 9 12 14 15 15 16 18 19 18 13 9 6 4 5 9 12 11 13 12 12 10 10 10 10 9 9 8 8 7 7 6 6 6 6 5 5 6 6 7 6 7 7 7 7 6 6 6 6 6 6 5 4 3 3 3 2 5 4 3 3 4 4 5 5 4 5 4 4
5 4 6 7 6 6 4 3 2 1 2 3 4 4 0 1 4 4 7 16 16 4 5 10 12 11 13 13 13 12 13 15 16 18 18 16 16 15 15 13 13 12 11 13 12 11 11 11 11 10 11 10 10 8 7 7 8 7 7 7 7 6 6 6 6 6 6 6 7 7 8 8 7 6 7 6 6 6 6 6 5 4 3 4 2 4 4 3 3 4 4 4 4 4 4 4 4
5 9 1 6 5 11 12 8 7 6 6 8 4 1 3 2 8 1 6 18 16 8 4 6 9 5 9 11 15 19 19 19 20 21 20 22 22 22 20 18 15 10 8 11 11 11 12 14 13 12 11 11 9 9 8 8 7 7 8 7 6 7 7 7 6 6 6 7 7 7 7 7 8 8 7 6 6 5 5 5 5 4 4 3 3 4 5 4 5 4 4 4 4 4 4 4 4
5 9 4 7 4 7 7 6 6 4 7 5 3 5 11 6 6 5 19 19 11 8 6 6 1 5 9 13 16 15 15 15 17 17 13 12 14 14 8 8 8 9 12 12 11 11 13 13 13 14 12 12 10 9 10 8 7 7 7 7 7 7 6 7 7 6 7 6 6 7 7 8 7 7 7 7 6 6 5 5 5 4 4 3 3 3 4 4 4 4 5 4 4 5 4 5 4
7 11 2 3 4 5 6 7 8 7 5 2 3 11 11 5 5 11 26 24 10 7 7 9 5 5 10 13 16 16 16 18 19 14 19 16 9 10 13 13 12 13 17 13 12 13 11 13 15 16 15 13 11 10 9 9 9 9 9 9 8 7 7 7 5 6 6 7 7 7 7 7 8 8 8 7 7 7 6 5 5 4 5 3 4 5 3 4 5 4 4 4 5 5 5 5 4
3 3 4 6 8 7 5 5 7 2 4 4 5 12 13 1 3 14 16 7 1 6 10 7 8 11 11 10 12 14 17 19 20 19 9 8 11 13 15 13 14 17 11 13 13 12 12 13 14 14 13 12 10 11 10 10 9 10 10 8 7 8 7 7 6 6 6 6 7 8 7 7 7 7 7 8 6 7 6 6 6 4 5 3 3 4 3 4 4 5 4 5 5 5 5 4 5
1 2 5 7 6 6 10 6 13 1 7 8 9 12 10 2 2 16 24 1 3 5 6 8 7 11 11 12 12 12 14 17 15 10 17 15 15 16 16 16 19 14 14 16 14 11 11 15 15 14 14 12 12 11 10 10 11 10 9 8 9 8 8 7 7 7 7 6 6 7 7 8 7 7 7 7 8 7 7 7 6 5 5 3 4 4 4 3 5 4 4 4 4 4 4 5 4
1 1 7 9 6 10 15 6 7 5 7 4 7 2 11 3 9 23 20 14 3 4 7 7 9 11 11 9 11 10 15 15 10 12 18 19 18 15 19 19 18 16 14 14 12 12 15 15 14 15 13 13 14 14 12 10 9 9 9 9 8 8 8 7 8 8 7 7 6 7 8 8 7 8 7 8 8 7 7 7 6 5 5 5 4 4 4 3 4 4 5 3 5 5 5 6 5
2 1 1 10 7 8 19 3 4 5 4 8 6 6 8 14 18 20 18 9 1 5 11 11 10 10 10 9 10 12 11 9 12 17 18 17 16 16 19 17 16 15 12 9 11 15 13 10 11 11 13 15 15 12 11 10 10 9 8 8 8 8 8 8 8 7 7 7 7 7 8 8 7 7 8 7 7 7 7 7 7 6 6 5 4 4 5 4 5 5 4 5 5 6 6 5 6
4 2 1 6 6 10 6 1 2 2 3 9 5 6 11 14 17 14 11 5 5 10 13 13 11 10 10 9 9 11 13 13 18 19 18 18 16 14 17 12 13 13 8 9 16 19 15 13 11 11 14 14 14 13 13 12 10 10 9 9 8 9 8 9 8 7 7 7 7 7 8 7 7 7 7 8 8 7 7 7 6 6 6 5 5 4 5 4 5 5 3 5 3 5 4 4 5
2 2 7 3 7 9 15 2 5 6 1 5 6 7 12 18 19 16 4 2 5 8 13 13 12 10 9 9 11 12 13 12 15 15 16 17 14 13 14 15 14 13 16 17 15 11 14 13 14 13 14 15 15 15 13 12 11 10 9 9 8 8 8 8 8 8 7 7 7 7 7 7 7 7 7 7 8 7 7 7 6 6 5 5 5 4 4 5 4 5 3 4 5 5 5 5 5
3 7 6 9 3 7 10 9 4 12 3 1 10 10 3 12 17 17 7 6 7 10 13 13 12 12 11 10 11 12 11 9 11 15 16 15 14 14 13 13 14 18 18 14 14 14 15 15 15 15 17 18 16 15 13 10 10 10 10 10 9 8 9 8 7 7 7 7 7 7 8 8 7 7 7 6 7 7 6 6 6 6 5 6 5 4 5 3 3 5 4 4 5 4 5 4 4
7 1 8 6 7 3 5 10 6 5 8 5 8 8 12 15 11 7 3 3 4 7 13 13 11 10 12 11 10 11 11 12 14 16 18 17 14 15 14 14 16 16 15 15 15 17 19 17 16 16 15 15 14 14 13 11 10 8 7 7 7 8 8 7 7 7 7 7 7 8 8 8 8 8 7 6 6 6 6 7 6 6 6 6 6 5 5 3 3 5 5 4 5 4 3 3 4
9 4 4 7 6 7 13 3 4 3 4 8 6 13 16 16 16 13 12 5 5 8 12 10 10 9 11 10 11 12 12 13 18 17 17 13 12 13 14 13 13 13 13 16 15 15 12 13 12 14 14 14 13 12 10 8 7 5 4 6 6 7 6 6 7 7 7 7 8 8 8 8 8 8 8 7 7 7 7 6 6 5 6 6 6 5 5 4 3 3 5 4 3 3 1 0 2
12 10 8 4 6 8 7 14 7 5 7 8 9 13 16 17 20 19 16 13 13 17 11 8 12 13 12 10 11 12 12 16 18 16 11 6 11 12 13 12 12 12 12 12 14 13 14 13 12 12 13 13 11 10 9 8 7 8 9 5 5 7 7 7 7 8 7 7 8 8 8 8 8 8 8 7 7 7 7 7 7 5 6 6 7 6 5 5 5 5 4 4 3 2 0 1 0
5 2 4 11 12 11 7 15 9 2 3 11 15 18 18 17 17 20 18 12 12 15 16 14 13 14 15 14 14 14 14 18 19 10 8 7 9 12 11 10 11 10 11 12 14 15 16 17 16 17 14 14 13 13 12 12 12 9 7 11 13 10 10 7 7 7 8 8 8 9 9 8 8 8 7 8 8 7 6 6 7 5 5 6 6 6 5 5 4 4 5 3 4 3 1 0 1
8 9 7 14 7 15 15 13 9 4 6 6 10 18 19 18 17 17 14 9 16 17 17 18 18 15 14 16 18 17 19 13 11 11 8 6 8 9 9 10 10 12 12 14 17 19 17 16 18 16 13 14 15 15 14 13 13 15 15 15 12 10 10 11 11 10 10 8 9 9 8 8 8 8 8 7 7 8 8 7 7 7 7 6 5 4 5 4 4 4 5 4 1 3 1 0 3
7 9 9 9 10 14 16 10 15 9 3 15 9 16 17 16 16 15 15 17 17 15 16 20 18 15 13 15 17 18 16 16 14 15 9 8 8 9 10 11 13 17 17 19 19 16 15 16 16 15 15 15 15 14 13 14 12 10 10 8 11 7 6 6 6 6 6 8 8 9 8 8 8 8 8 8 8 8 8 8 8 7 7 7 7 6 5 5 5 5 4 6 5 2 1 1 3
6 8 6 13 9 4 13 4 8 0 8 4 3 11 14 7 9 13 15 19 17 15 15 18 18 16 16 18 17 15 17 18 18 19 17 8 8 9 9 10 13 12 11 11 12 17 15 15 15 16 15 15 14 14 14 11 9 6 4 5 5 6 5 5 5 5 6 6 8 8 8 9 9 8 8 8 7 7 8 9 7 7 8 7 7 8 7 6 5 4 4 4 6 4 2 0 1
8 13 9 11 12 15 13 7 3 5 4 4 10 15 18 10 16 13 15 20 16 16 14 15 18 15 15 17 13 14 18 19 18 18 14 7 9 12 14 13 10 12 13 16 16 17 14 18 17 16 15 15 14 14 14 10 9 7 6 6 5 5 4 5 5 6 8 8 7 9 11 9 9 9 9 8 8 9 7 7 8 8 8 7 7 7 7 7 6 5 5 5 4 6 4 2 1
10 7 14 21 17 12 10 13 8 5 7 3 2 9 15 8 18 17 12 10 10 14 13 18 21 19 14 17 22 19 16 17 19 19 17 9 11 8 7 9 12 14 15 16 16 16 14 14 14 15 12 12 13 13 14 12 13 13 11 10 10 10 9 10 15 17 13 14 14 7 6 9 9 8 8 8 8 7 8 8 7 8 8 7 7 7 6 5 5 5 5 5 5 4 5 4 2
10 6 15 18 13 10 9 12 3 7 6 3 1 3 21 5 5 8 9 10 12 9 9 17 17 17 13 16 18 18 17 15 13 14 14 8 10 9 12 14 15 15 16 12 11 13 13 13 14 15 14 13 12 13 14 12 12 12 16 17 15 16 15 13 9 6 10 8 6 10 9 8 9 10 9 9 8 8 7 7 8 8 7 7 6 7 7 7 6 5 4 4 5 6 5 4 5
10 3 8 7 7 6 7 5 7 9 0 3 1 4 8 25 5 9 13 13 10 12 15 18 17 15 12 13 15 17 19 15 11 11 13 12 10 14 16 16 13 17 12 10 11 10 14 15 15 14 11 12 12 13 15 15 15 14 14 13 12 13 15 13 11 10 7 7 9 10 9 9 9 9 10 9 9 8 8 8 7 7 8 7 7 7 8 6 6 4 5 4 4 5 6 7 5
5 1 7 6 7 5 3 4 4 3 4 9 5 2 4 14 4 11 12 6 8 13 18 19 17 12 13 15 17 17 18 16 8 11 13 14 13 15 13 13 15 9 9 13 14 14 13 12 13 12 13 13 13 15 16 16 14 15 15 13 13 12 10 7 7 7 8 9 10 8 9 9 9 8 9 10 9 8 8 8 8 8 8 8 7 7 6 7 8 8 7 6 6 5 5 5 6
4 5 6 5 4 4 2 1 0 3 3 10 8 6 5 23 7 3 0 5 10 14 18 18 15 11 12 14 15 16 15 11 11 15 14 10 11 11 11 9 7 11 10 9 9 10 12 12 14 16 15 13 13 15 16 16 15 13 14 15 16 12 9 6 8 9 9 9 11 10 9 9 9 9 9 9 9 8 8 8 8 9 9 8 7 7 7 7 7 7 7 6 6 6 4 6 5
4 4 3 4 7 3 3 6 3 5 10 10 11 11 8 15 4 9 9 8 12 12 5 7 9 11 13 13 14 14 15 14 13 10 7 7 6 7 6 10 10 7 7 10 11 12 12 13 14 15 15 12 13 15 16 17 15 14 15 16 17 15 13 10 10 10 9 10 12 12 11 10 9 10 8 8 10 9 9 8 9 8 7 7 7 8 8 8 8 7 6 5 6 7 6 6 4
4 2 3 4 5 6 2 4 3 3 14 4 12 14 13 13 3 4 5 4 2 8 9 9 10 13 13 11 11 14 15 14 6 4 7 5 3 5 6 8 8 10 8 10 10 11 12 13 13 15 13 15 14 14 16 16 15 16 15 15 17 16 15 13 15 15 15 15 14 13 10 8 9 8 8 8 9 10 9 9 8 8 8 8 9 7 7 7 7 6 6 6 6 5 5 6 6
4 4 3 2 6 6 3 2 1 6 13 3 6 8 2 22 12 3 6 7 7 6 10 11 10 11 11 12 13 14 12 7 6 7 5 6 9 10 11 9 7 10 14 14 13 13 12 12 15 17 18 17 16 16 17 17 16 17 17 17 15 13 14 15 15 14 14 14 13 12 12 12 10 10 11 11 11 12 10 10 10 10 9 9 8 8 7 7 7 7 7 7 6 6 7 7 7
7 8 6 6 5 4 5 5 3 6 7 5 5 2 12 9 3 11 16 18 17 11 10 9 10 11 12 12 12 11 9 8 9 7 6 8 9 10 11 12 13 11 11 12 12 13 13 13 15 18 19 16 14 15 17 17 19 19 17 16 15 13 14 14 14 14 14 13 12 14 15 14 14 15 14 15 13 13 11 11 10 9 7 7 8 8 8 8 8 8 7 7 7 6 6 7 6
13 3 13 12 10 7 4 5 10 10 11 2 2 5 9 2 5 6 15 8 3 3 8 9 8 7 9 9 9 13 14 13 9 5 6 9 10 10 11 12 12 11 12 12 12 13 12 13 15 18 15 16 18 19 17 19 18 17 16 15 14 13 14 13 13 12 12 13 13 14 14 12 13 13 13 12 10 12 12 10 10 10 9 9 9 9 8 8 7 7 6 7 6 6 6 6 6
3 3 3 1 10 6 9 9 7 6 3 4 3 8 3 6 1 2 3 5 9 6 4 4 7 10 10 13 14 15 15 15 3 3 6 8 8 8 8 9 10 9 10 10 11 12 13 16 16 17 19 18 17 16 16 18 17 14 14 15 16 15 12 12 11 10 12 13 13 14 14 14 12 11 10 10 11 12 12 11 10 10 9 9 9 9 9 8 8 8 7 7 7 4 6 6 5
4 8 8 12 2 7 6 4 1 3 1 16 3 7 10 6 13 8 10 8 9 6 9 9 10 14 12 12 13 14 13 11 5 4 6 6 5 7 10 9 8 8 10 14 16 16 19 17 16 17 17 14 16 18 19 16 14 12 14 15 14 13 15 16 16 16 14 12 12 12 12 13 11 10 11 11 12 12 11 11 11 10 11 10 10 9 9 8 8 8 8 8 7 5 6 6 5
9 3 8 3 2 3 3 6 2 4 11 12 4 13 10 4 15 3 4 2 5 6 8 7 7 7 7 11 12 12 11 9 7 7 7 7 7 8 7 7 10 15 17 16 16 15 13 13 14 16 14 16 18 18 18 16 17 17 16 16 16 17 16 16 13 13 12 11 12 11 10 10 14 12 11 10 12 13 11 12 11 11 10 10 11 9 9 9 9 7 7 7 6 6 6 5 5
3 4 2 6 4 5 3 3 5 7 11 8 11 18 14 11 17 6 8 8 11 8 5 5 7 8 8 10 13 13 11 9 10 9 8 8 9 11 12 13 13 11 10 12 12 12 11 11 13 14 16 18 15 11 10 10 11 12 13 17 18 17 14 13 12 10 9 12 14 13 13 13 9 10 11 12 12 13 12 12 11 11 10 11 10 10 9 9 8 7 7 7 6 7 6 6 5
1 0 1 1 1 3 5 8 2 4 15 9 14 13 17 7 4 2 4 7 4 6 5 5 6 6 7 7 10 12 13 12 12 10 10 10 9 10 11 12 13 15 13 11 11 10 12 14 12 13 13 11 11 14 15 16 17 16 15 14 14 15 15 14 13 12 12 14 14 13 13 12 14 11 11 13 13 14 14 14 12 12 11 10 10 9 9 8 8 7 8 7 7 7 7 7 6
3 2 3 2 1 3 2 3 3 7 11 10 10 13 12 11 6 4 5 4 2 1 8 9 9 10 9 8 9 9 12 12 13 9 11 11 11 10 9 7 6 4 5 6 8 13 14 9 11 13 16 16 15 16 15 16 14 16 15 16 16 16 16 14 12 13 13 13 11 12 13 12 10 13 12 13 14 14 14 14 13 12 13 12 11 10 9 9 8 8 8 8 8 8 8 6 6
8 11 12 13 9 5 8 13 3 2 7 11 11 16 7 13 2 6 6 3 5 8 7 8 7 8 9 10 9 7 8 11 12 14 12 12 12 11 6 3 3 5 6 9 11 8 8 13 16 14 12 12 15 15 15 17 16 16 17 17 17 13 13 12 14 13 14 13 13 13 13 11 14 13 12 13 13 12 12 13 13 13 12 11 11 11 10 10 10 10 9 7 8 8 7 6 6
Wind_Direction
330 331 313 306 96 94 58 4 136 307 48 254 305 254 255 225 212 99 205 335 186 262 228 336 38 87 192 208 173 173 184 131 204 130 210 232 270 208 167 141 142 141 144 157 149 131 148 145 149 143 140 142 141 141 132 131 125 127 122 124 118 111 104 96 96 99 96 92 91 90 90 89 81 75 72 69 66 62 62 61 60 59 53 49 57 64 64 65 68 67 64 61 54 45 41 42 41
335 327 346 292 181 77 278 119 97 344 38 357 253 130 249 280 102 208 190 196 202 182 212 114 64 70 61 87 107 115 44 259 171 171 294 251 320 274 186 145 150 145 148 155 145 132 144 145 144 143 139 143 145 141 135 131 130 129 125 124 127 124 110 106 97 95 94 91 90 88 89 87 76 69 71 68 65 64 58 53 51 52 51 45 44 47 51 52 50 57 56 52 49 43 40 36 33
351 354 10 26 28 76 68 42 286 30 49 281 275 211 306 270 210 227 218 219 220 161 127 145 116 61 64 39 54 149 238 113 91 127 141 234 142 223 190 153 156 147 145 156 145 142 135 169 145 142 140 142 144 137 133 133 134 135 132 127 134 120 114 110 110 106 103 97 93 92 91 93 86 84 78 76 71 70 67 60 55 57 54 50 56 54 53 56 55 54 53 51 50 43 39 35 32
45 29 90 61 267 26 67 26 95 129 172 216 299 276 226 198 236 214 241 239 213 110 202 183 133 235 110 315 208 67 32 275 199 158 142 212 206 167 165 152 151 139 137 151 152 145 156 157 141 142 143 142 140 137 136 132 126 125 129 131 130 124 125 128 120 115 115 115 111 107 108 102 98 94 86 81 77 74 72 66 62 58 55 52 51 51 51 52 55 53 55 54 51 45 38 33 31
24 316 92 94 108 354 109 188 152 113 225 200 200 271 260 222 209 197 244 245 264 236 155 182 91 311 176 148 162 166 238 218 292 188 177 193 211 162 142 146 141 139 151 158 148 147 164 161 147 143 146 143 140 138 134 128 127 127 130 131 131 130 127 122 120 122 123 120 115 111 109 107 104 96 91 84 78 76 74 73 70 64 57 55 56 56 55 53 52 51 50 50 49 44 39 34 30
40 41 11 90 144 174 53 33 295 201 224 152 254 249 242 217 187 197 220 271 252 232 209 162 173 188 184 226 192 218 183 127 186 189 158 196 177 157 143 142 139 143 156 155 146 147 165 154 150 155 149 144 139 137 136 136 138 139 138 136 135 132 130 127 126 125 121 115 112 109 105 103 99 94 90 84 81 80 78 77 75 71 66 60 57 57 55 52 49 50 49 46 44 41 37 34 32
359 32 355 21 2 55 180 174 233 210 263 170 237 248 245 217 218 147 190 105 275 357 185 199 112 95 58 255 355 229 240 236 121 234 161 167 163 153 147 142 138 149 158 159 150 150 170 160 163 157 153 149 148 146 146 146 145 144 143 140 138 136 133 131 130 126 120 117 113 109 106 102 96 93 89 84 81 79 77 75 74 72 70 65 61 58 56 53 50 48 46 45 41 38 35 35 35
92 108 314 104 227 40 229 228 254 159 274 176 220 224 242 195 176 184 184 137 224 164 212 269 224 118 229 107 182 262 335 188 243 270 137 146 157 159 147 146 143 157 159 159 156 156 172 170 166 160 159 156 152 150 149 147 145 144 143 141 138 136 135 132 127 123 120 116 113 111 108 103 99 95 92 90 86 82 79 76 74 71 69 66 64 61 58 56 54 50 48 46 44 42 40 39 38
351 87 9 76 232 33 7 247 254 226 276 278 269 232 239 185 174 159 179 223 355 251 199 210 223 134 252 160 210 286 284 299 19 152 140 153 164 161 151 154 150 158 159 159 160 166 171 177 167 165 161 157 154 151 148 146 144 143 142 140 137 136 134 131 127 123 120 116 113 111 109 105 103 100 99 95 91 88 85 81 77 74 69 66 63 61 57 54 52 50 47 46 47 48 47 44 39
12 88 308 154 132 255 340 288 198 240 223 230 243 245 173 166 190 187 171 254 209 129 230 216 213 189 145 189 294 276 249 143 131 104 152 164 162 148 150 158 151 149 153 157 160 167 171 173 169 166 161 157 154 151 148 147 146 145 143 141 139 137 135 132 129 125 121 118 115 112 109 107 104 101 98 95 92 89 85 83 80 76 73 69 67 63 59 55 53 52 47 46 48 48 46 41 40
353 6 142 79 18 240 241 272 255 300 266 310 301 247 212 151 162 206 193 207 179 173 230 150 281 221 138 252 203 279 294 159 147 169 172 169 158 153 150 148 146 148 150 154 157 162 177 175 170 162 160 158 156 154 151 150 149 147 145 143 140 139 136 133 129 126 123 120 117 114 111 109 105 102 96 93 92 89 88 87 85 80 77 74 72 69 66 62 60 57 54 52 51 50 45 42 41
339 29 2 128 195 174 233 214 268 272 293 319 273 198 171 160 140 167 225 166 203 246 174 162 221 144 208 324 273 315 108 195 185 165 167 162 163 159 149 147 147 150 149 152 143 153 166 173 159 162 159 158 157 154 152 152 151 149 147 146 143 141 138 134 129 126 123 120 117 113 110 108 106 103 101 96 92 91 91 90 88 84 81 79 77 75 70 69 67 63 60 57 53 49 47 45 41
116 108 78 98 235 146 231 244 256 274 308 278 214 236 134 137 189 210 206 184 162 136 270 216 85 130 232 210 275 307 199 215 202 168 164 161 162 144 141 147 156 151 154 151 150 162 159 152 149 152 159 155 153 153 155 155 152 151 151 149 146 142 139 134 131 128 125 121 116 111 107 104 103 103 101 98 93 91 90 88 88 86 82 79 79 76 73 72 71 69 65 61 56 52 48 46 43
111 179 120 248 93 207 190 251 292 305 287 250 247 245 166 163 232 186 133 176 205 181 240 187 144 157 228 24 289 234 223 200 192 169 145 139 127 133 142 146 153 155 159 157 163 167 162 155 146 152 150 147 148 149 153 154 154 154 154 151 149 145 141 137 133 130 126 121 117 114 111 107 103 100 98 96 90 84 83 84 84 82 80 78 77 74 73 72 71 69 67 63 59 55 51 48 46
335 173 86 114 293 41 244 173 219 163 267 219 266 141 203 253 108 131 164 189 242 212 323 109 173 106 245 160 272 223 199 188 171 152 131 113 122 132 144 152 155 159 166 170 166 170 173 155 154 140 143 147 146 147 151 156 154 155 155 153 151 148 143 139 134 129 124 123 121 117 112 107 101 96 94 95 92 83 76 72 77 76 74 73 72 69 67 66 65 63 61 59 56 52 48 43 42
155 81 85 217 265 170 270 206 286 127 265 198 278 67 36 286 233 138 245 175 269 325 125 207 226 206 203 168 224 237 162 155 154 130 120 115 110 113 136 150 161 173 176 178 178 188 172 164 160 159 160 167 160 155 153 147 151 152 155 155 153 149 145 141 137 131 124 119 119 116 110 103 97 92 89 81 83 77 72 73 74 72 69 67 64 63 60 57 55 53 52 52 51 49 43 37 33
56 81 281 34 285 162 259 181 155 296 251 274 285 309 185 264 272 241 108 58 146 223 217 223 194 48 185 210 295 113 132 132 129 129 123 132 137 142 145 159 169 185 197 198 188 188 182 174 172 167 183 177 173 160 151 146 154 155 157 156 153 150 147 143 138 131 124 121 117 117 112 110 106 97 89 86 72 65 58 70 76 75 73 72 72 71 69 65 60 55 51 49 48 44 36 30 25
60 190 126 270 203 173 220 204 192 196 268 281 270 223 175 282 303 257 49 335 272 301 235 282 324 26 310 296 46 127 138 142 150 148 162 159 162 167 184 195 177 198 194 197 204 189 182 189 179 178 180 186 179 168 158 156 163 152 155 154 152 151 146 139 133 136 135 133 127 119 120 118 111 100 88 75 66 61 67 74 81 83 81 79 80 81 79 75 70 65 60 56 50 43 37 30 21
149 134 119 234 192 238 163 208 225 315 273 235 244 269 181 232 151 277 195 273 251 261 261 275 259 289 16 40 107 133 144 149 161 169 168 172 181 184 190 187 198 185 203 202 204 196 191 182 181 182 186 182 178 175 164 166 158 150 157 155 159 150 146 141 144 138 138 138 132 126 117 112 108 98 92 89 85 83 81 86 90 88 83 80 81 83 82 76 71 67 62 57 50 44 36 30 24
235 132 240 244 212 245 230 239 276 215 241 274 275 277 165 250 175 61 204 244 290 224 233 264 237 242 211 153 152 150 157 164 173 175 181 187 190 189 187 191 199 206 203 198 194 190 187 188 188 185 182 181 176 176 168 166 162 158 164 168 160 157 154 152 143 142 143 141 136 126 118 113 106 109 106 98 87 81 76 76 76 79 85 80 74 63 65 69 66 60 60 55 47 44 41 33 26
274 126 208 234 219 213 269 238 230 247 168 235 208 337 218 267 217 159 214 305 248 243 223 200 217 228 199 178 173 167 168 173 183 188 190 195 200 203 200 196 195 199 198 179 180 195 193 190 184 188 181 181 177 175 170 172 170 162 172 174 165 165 163 157 151 145 148 143 136 127 128 120 114 112 114 112 111 106 99 90 87 86 87 86 89 84 77 67 66 61 50 51 48 44 41 32 29
115 212 224 222 263 267 259 247 255 198 200 245 247 291 251 43 67 225 176 229 256 206 236 214 229 227 166 177 189 179 179 182 188 191 197 196 196 202 205 216 228 209 170 185 199 192 196 192 187 184 181 183 182 176 176 170 163 172 176 178 167 172 167 166 157 153 153 150 140 138 132 124 127 128 129 127 126 125 120 124 125 123 107 105 100 99 85 81 69 67 63 56 45 47 44 35 29
247 264 255 236 231 243 267 272 231 211 269 240 279 241 13 245 263 234 202 224 250 184 194 198 215 222 190 173 162 182 187 192 193 198 198 202 207 210 206 204 195 197 194 205 193 196 191 192 188 179 185 182 184 177 168 169 177 177 173 174 166 178 172 165 168 164 162 153 146 148 143 141 139 139 137 139 139 139 137 140 138 133 123 107 102 103 89 78 76 68 65 63 56 47 39 30 23
212 253 166 270 212 235 254 266 293 282 256 255 234 11 252 264 287 240 226 241 244 242 202 200 213 205 133 150 181 184 191 194 200 203 198 201 199 203 202 198 203 202 200 204 195 194 188 193 187 180 186 183 182 177 174 179 178 174 178 176 179 176 169 175 175 174 164 159 153 156 146 146 147 145 149 147 152 140 144 141 138 126 121 114 107 97 92 71 66 62 66 55 53 50 45 28 25
205 262 230 264 217 240 256 259 278 267 256 266 321 285 254 215 247 356 266 263 240 243 227 235 151 137 163 173 185 196 199 205 210 212 212 221 216 215 215 220 207 196 208 203 197 194 196 189 184 187 185 186 181 176 182 182 178 177 177 181 182 179 178 180 176 170 169 163 159 159 153 149 149 149 153 155 146 145 143 137 132 130 123 126 112 85 90 86 67 64 59 58 54 47 40 30 24
210 232 232 280 270 283 276 294 265 259 272 182 284 261 267 260 280 273 261 269 253 225 220 223 189 157 180 193 193 194 200 204 211 208 212 212 210 206 215 209 203 205 210 198 193 201 190 186 189 190 186 184 180 176 185 183 184 182 185 186 183 177 181 175 172 176 174 162 164 165 160 155 158 158 155 154 148 148 143 137 129 131 121 129 111 99 103 96 91 71 63 56 51 39 37 18 21
179 228 239 254 270 301 277 228 269 228 237 162 220 271 272 326 143 277 275 242 146 203 221 225 209 220 209 204 203 203 201 209 207 210 211 213 214 212 216 210 209 214 197 202 201 198 189 185 194 190 186 182 177 184 184 188 183 189 188 183 181 182 174 168 176 175 172 172 167 163 159 158 157 157 154 154 149 145 143 137 134 133 113 117 119 109 107 107 102 94 87 75 58 48 35 19 17
275 246 309 285 283 271 259 263 268 298 284 197 205 254 281 295 144 244 265 168 94 176 238 242 223 229 227 215 207 208 210 217 213 193 207 202 211 211 211 206 212 207 198 207 202 188 184 195 191 190 186 181 180 186 186 188 189 189 185 180 186 177 168 173 174 175 178 176 165 164 161 159 159 160 157 155 151 147 144 139 140 127 132 136 119 121 106 101 100 98 87 82 75 67 40 24 13
265 24 321 294 327 317 276 248 262 137 259 145 160 255 287 213 216 244 248 262 288 267 261 255 241 240 237 226 216 211 216 218 201 204 215 212 212 207 212 210 205 201 210 204 190 181 193 191 189 191 184 183 184 186 188 191 187 187 181 186 182 172 174 170 176 181 179 176 166 165 162 160 163 162 164 159 153 147 144 140 138 143 149 142 133 128 115 105 88 81 66 68 62 51 36 15 7
346 19 213 310 317 307 280 145 259 177 252 137 125 270 246 255 241 246 258 266 293 283 269 256 248 244 244 232 223 223 225 215 210 213 216 217 214 209 215 213 204 202 200 190 178 195 194 187 188 183 187 187 188 186 186 188 188 187 184 183 178 172 177 175 180 179 176 173 168 165 162 164 164 167 160 159 151 145 145 144 145 152 154 142 137 123 106 110 100 86 83 71 56 50 34 14 9
267 251 76 246 322 265 271 93 95 186 209 169 144 219 263 267 265 257 254 248 219 250 260 261 254 247 243 240 232 230 228 212 216 217 220 219 217 213 216 212 202 202 187 187 193 197 184 185 181 186 188 189 185 188 188 189 185 185 182 181 180 178 177 178 176 174 177 175 167 166 165 166 168 168 169 156 155 148 146 147 150 156 150 139 122 124 114 97 97 91 92 79 67 54 46 27 14
303 349 257 319 205 269 287 288 181 233 278 204 122 252 239 255 263 270 224 176 177 232 252 256 257 257 248 244 241 241 238 219 230 231 226 224 217 215 209 208 198 194 196 198 197 180 187 185 185 186 184 187 189 189 189 187 184 184 183 181 177 179 176 178 177 179 177 170 169 166 170 168 169 170 167 161 150 154 150 151 155 151 144 127 121 112 99 102 100 92 80 91 64 40 31 13 12
332 201 262 264 193 258 342 289 194 217 163 264 179 231 276 280 261 266 272 233 214 227 253 258 257 258 260 247 240 242 251 244 234 232 229 222 217 213 208 204 197 199 199 192 187 183 187 186 186 185 186 189 188 188 185 184 180 182 183 181 178 176 179 178 177 172 170 173 172 170 172 170 170 170 169 164 151 153 150 145 155 151 141 130 122 110 104 124 115 107 86 75 87 69 39 7 348
266 189 222 219 240 254 248 296 272 193 170 213 236 242 235 249 266 261 308 176 177 224 246 256 259 254 250 253 251 247 242 246 240 234 231 219 214 206 205 203 202 199 198 192 188 185 187 184 186 188 188 187 184 184 183 182 181 173 177 178 175 180 185 177 172 170 177 177 172 173 173 170 171 172 169 162 152 151 149 148 152 149 139 129 124 117 122 112 109 111 96 71 79 79 44 7 334
230 217 239 276 258 228 249 288 275 104 233 223 229 237 248 252 262 267 256 230 230 241 245 252 260 259 258 254 255 252 246 243 246 241 233 217 208 204 202 202 201 196 195 192 188 189 182 183 183 186 181 182 183 180 176 172 161 153 145 162 175 183 184 180 170 179 181 176 181 174 172 173 172 171 167 162 154 153 149 149 148 153 140 135 127 127 122 117 108 96 110 90 69 102 130 231 273
235 222 243 231 248 244 223 244 252 221 248 230 229 238 243 248 259 262 264 259 260 262 258 264 266 264 263 254 250 252 249 248 248 246 244 204 201 195 201 199 197 194 192 186 185 183 184 181 183 183 184 179 172 170 162 163 162 168 168 162 180 198 188 178 184 186 177 183 183 176 178 176 173 171 168 164 156 155 153 155 152 153 148 139 139 139 145 146 140 116 115 114 87 59 75 175 262
268 293 244 251 254 268 262 267 263 200 278 231 235 243 250 251 247 253 256 263 266 263 266 258 252 255 255 258 252 248 248 245 247 247 244 212 197 198 197 189 190 189 188 182 182 187 185 182 176 185 182 174 173 173 176 172 175 173 177 190 196 187 186 179 185 188 187 189 184 183 180 176 173 169 169 164 163 156 153 152 151 157 153 149 149 159 158 153 148 139 131 120 121 91 53 297 267
244 254 264 266 249 274 250 263 268 229 205 255 224 250 251 249 250 255 261 255 258 257 259 259 255 247 250 250 254 251 247 256 268 268 244 215 206 199 189 184 175 178 194 183 187 189 186 180 185 183 175 180 183 181 180 182 184 185 183 192 186 180 179 184 190 192 191 186 185 184 182 178 174 174 170 167 161 161 159 162 163 165 160 158 156 149 150 150 141 133 138 88 54 124 135 142 326
244 238 252 278 263 258 275 258 266 257 166 267 253 258 254 249 249 253 256 251 249 250 247 255 257 253 246 248 248 253 257 255 256 258 247 218 210 199 188 190 193 193 187 188 191 182 182 185 188 179 181 180 185 182 178 187 187 186 185 178 178 176 198 196 188 184 174 183 189 186 182 179 176 175 171 169 167 170 167 163 169 165 164 158 147 151 155 156 160 153 155 138 113 55 111 33 40
220 241 255 246 253 271 285 196 262 266 189 272 254 268 266 266 265 255 252 255 250 252 249 256 254 253 249 245 241 245 251 256 254 252 250 217 205 202 195 196 197 192 186 191 183 186 186 189 184 182 182 183 182 184 186 185 174 154 133 131 149 148 172 163 162 157 175 171 192 189 189 183 180 175 173 173 171 172 170 170 164 168 168 165 157 155 162 166 159 155 147 140 133 106 91 65 46
203 219 230 256 250 238 237 267 325 287 287 279 290 280 276 229 249 250 249 247 256 261 258 258 261 250 249 261 259 242 245 249 252 256 252 217 203 205 199 200 183 190 191 190 188 188 188 188 184 180 180 184 184 182 179 161 140 127 114 97 103 93 80 143 156 193 190 188 181 194 195 177 178 179 178 179 175 175 173 171 171 169 164 164 156 157 165 172 170 166 158 145 150 139 141 132 346
245 203 211 234 242 262 263 278 320 320 311 292 259 319 278 184 212 228 234 258 241 248 248 252 253 253 244 255 256 252 242 246 248 252 253 222 215 204 206 194 192 199 198 197 191 188 182 182 179 180 179 182 183 179 171 163 168 163 154 154 168 183 186 179 195 196 187 192 197 174 165 184 180 177 180 179 179 174 178 176 172 166 166 165 164 162 158 151 166 162 174 157 149 143 135 129 130
267 252 210 233 242 239 257 275 340 277 253 316 80 189 290 142 216 217 237 240 245 257 244 251 253 251 242 242 254 259 255 248 246 250 256 227 214 199 204 199 199 198 206 189 183 185 182 178 180 180 179 180 178 175 171 170 171 177 181 185 185 187 193 208 203 187 190 190 159 177 184 179 183 179 184 181 181 181 176 175 174 173 167 164 160 152 163 172 169 170 164 152 166 148 126 133 161
260 221 174 212 230 227 233 221 204 256 311 279 176 144 258 293 235 209 208 223 227 247 254 253 247 251 246 245 247 253 257 251 238 238 241 233 212 200 203 205 196 206 191 171 179 177 181 180 177 180 179 178 179 174 177 179 180 184 187 191 192 196 200 199 185 189 176 172 179 183 178 185 185 185 180 184 182 181 178 176 174 170 168 170 164 169 168 165 156 156 161 165 154 154 154 144 158
227 223 141 174 193 207 162 179 210 227 9 301 208 80 287 259 269 200 180 208 242 239 242 248 252 248 246 248 249 247 251 257 236 237 235 222 211 209 206 197 206 190 163 177 183 183 178 174 176 176 181 179 179 178 180 186 187 185 188 188 197 207 199 188 171 170 176 177 183 181 183 184 184 187 185 181 183 181 179 177 175 174 172 173 170 163 162 162 165 161 159 153 165 163 157 147 131
270 117 80 78 70 70 107 96 331 326 349 262 178 174 228 280 279 198 13 195 223 232 233 242 254 255 253 254 257 259 261 256 235 232 235 222 216 212 207 197 178 188 184 177 171 168 174 172 178 180 186 182 179 181 185 187 188 183 189 196 200 195 186 169 168 179 180 177 188 186 185 182 186 185 187 183 179 182 180 178 180 181 178 171 169 168 162 163 165 164 164 161 159 156 151 142 151
121 73 68 7 32 23 22 68 85 5 261 258 176 196 170 274 305 169 143 197 208 225 253 263 272 269 262 257 252 258 258 254 242 234 239 233 216 209 174 186 188 172 170 168 171 175 175 177 180 184 186 178 180 185 184 190 190 190 197 197 198 194 186 174 172 185 179 180 192 190 188 190 184 188 180 187 185 180 183 182 182 183 175 172 168 168 174 169 168 164 161 156 160 156 158 150 148
133 131 128 31 331 10 31 345 46 188 272 202 191 182 180 232 264 287 222 265 219 189 220 235 239 249 253 258 257 252 252 253 259 227 234 209 176 182 175 190 177 179 165 174 177 175 178 180 177 183 184 188 185 185 188 192 191 199 202 198 200 198 185 186 189 189 187 189 191 189 186 177 189 185 184 185 189 185 179 184 182 176 181 176 178 172 166 164 160 153 154 158 167 164 155 153 156
108 96 96 191 261 26 310 28 294 196 236 247 198 174 348 241 240 209 277 267 257 220 211 219 230 247 258 261 259 260 261 281 254 232 216 196 194 186 192 192 171 179 188 183 180 178 177 179 182 183 193 189 188 185 190 193 194 201 201 200 202 196 196 195 195 193 190 190 188 185 180 190 182 184 193 190 195 184 181 180 182 184 184 185 171 166 165 160 158 158 160 163 166 170 170 161 162
131 166 164 132 252 237 254 266 249 301 281 239 159 167 243 272 307 202 246 252 244 226 220 225 229 236 244 247 261 273 281 270 255 224 207 205 203 200 196 189 191 189 188 182 180 181 183 185 187 191 197 187 188 189 194 194 201 203 200 200 199 193 201 199 199 198 192 192 187 189 188 188 187 194 188 195 189 181 186 189 185 185 178 170 168 167 164 165 162 163 162 164 174 176 159 161 161
198 117 157 194 175 150 207 217 240 238 248 314 264 128 234 75 246 221 214 240 298 284 243 247 264 266 270 284 296 290 281 271 254 219 208 213 211 199 194 196 193 190 184 182 183 187 183 190 190 196 190 192 192 195 193 199 204 203 200 201 198 197 202 200 206 201 191 191 191 190 192 190 192 194 192 192 174 184 186 179 182 179 176 173 168 166 166 164 163 158 161 163 166 165 163 155 158
206 159 75 52 229 152 229 225 240 262 328 318 204 216 208 234 234 282 242 275 264 264 310 288 264 258 264 268 263 262 268 274 316 226 229 230 218 204 199 199 197 186 182 185 189 188 192 198 197 197 196 193 194 194 199 203 206 201 202 201 203 200 200 201 206 204 200 193 192 192 193 192 194 187 187 176 183 181 181 180 177 180 173 172 172 170 166 166 165 160 160 161 167 172 157 155 156
222 118 192 214 129 168 257 321 301 84 23 257 180 282 271 315 274 237 245 239 268 293 281 267 253 244 244 252 263 265 269 288 323 268 257 255 238 219 207 198 187 180 182 192 195 193 197 195 195 198 198 192 195 199 202 202 201 198 205 207 204 202 202 202 204 202 199 190 188 195 192 194 184 183 182 180 177 181 180 177 177 175 177 175 171 171 168 165 164 163 165 164 166 166 152 160 153
107 194 226 75 119 119 161 216 320 221 237 263 257 247 276 347 285 15 30 39 271 269 252 271 290 305 308 271 267 272 281 302 291 266 255 242 226 229 224 209 198 194 193 194 197 198 201 199 201 200 197 198 203 200 201 197 196 200 201 203 205 206 207 209 205 202 195 187 191 189 186 183 194 186 176 177 174 176 178 177 177 178 177 174 175 169 168 166 162 165 162 161 159 155 153 155 161
139 191 261 138 241 250 247 94 232 238 242 256 249 277 263 234 256 281 305 297 290 285 324 324 301 298 278 291 294 295 293 294 287 269 255 249 234 226 214 208 207 205 202 202 198 188 192 202 206 201 202 207 206 205 208 208 203 205 206 205 203 204 206 206 205 199 190 197 194 189 187 191 175 178 177 175 175 176 177 178 176 176 176 178 172 170 165 164 163 156 157 157 162 161 162 165 166
166 49 316 110 108 201 155 199 199 207 249 246 260 259 266 230 215 198 212 241 235 280 345 315 291 271 275 275 278 284 294 286 274 266 255 246 240 235 228 215 201 202 200 194 188 189 201 205 198 206 209 199 193 200 200 204 204 204 206 205 204 204 203 202 199 192 195 200 198 188 183 179 188 175 183 176 177 179 178 177 178 174 176 174 172 167 164 160 159 160 160 162 171 167 169 171 168
224 227 273 314 219 223 121 301 181 221 250 234 261 253 259 265 185 170 214 204 195 47 335 316 311 304 297 285 266 272 274 285 293 284 276 261 246 239 239 254 244 213 192 184 189 197 204 194 206 206 203 200 202 205 200 210 204 210 206 204 204 202 200 196 192 194 198 200 197 191 188 183 158 185 179 180 183 182 179 177 173 174 175 175 171 168 166 161 163 165 169 170 171 174 172 171 158
189 189 211 208 213 261 254 253 185 245 237 248 247 249 246 272 145 156 161 215 300 317 298 283 278 275 266 265 273 264 274 278 266 260 252 253 248 234 220 219 228 208 217 202 199 193 192 198 208 208 208 206 205 208 206 209 204 208 205 207 205 201 197 190 192 193 198 197 195 193 186 167 181 180 176 183 183 179 177 173 173 174 175 174 173 168 167 165 168 170 174 168 171 170 169 164 162